This is the latest recevied weather packets stored in our database for station/object WA1TYB-13. If no packets are shown the sender has not sent any weather packets the latest 1 day(s).
| Time | Temp. | Humidity | Pressure | Rain* | Wind** | Luminosity | Snow |
|---|---|---|---|---|---|---|---|
| 1777998400 | 7.22° C | 45% | 1019.9 hPa | 0 mm | 1.34 m/s, 96° | 538 W/m² | - |
| 1777998098 | 6.67° C | 47% | 1020.2 hPa | 0 mm | 0.45 m/s, 3° | 337 W/m² | - |
| 1777997795 | 6.67° C | 49% | 1019.9 hPa | 0 mm | 1.34 m/s, 3° | 350 W/m² | - |
| 1777997492 | 6.67° C | 47% | 1020.3 hPa | 0 mm | 0 m/s | 360 W/m² | - |
| 1777997190 | 7.22° C | 47% | 1019.9 hPa | 0 mm | 0.89 m/s, 59° | 329 W/m² | - |
| 1777996887 | 6.67° C | 47% | 1020 hPa | 0 mm | 1.34 m/s, 61° | 287 W/m² | - |
| 1777996583 | 6.67° C | 48% | 1019.9 hPa | 0 mm | 0.89 m/s, 41° | 312 W/m² | - |
| 1777996279 | 6.67° C | 49% | 1020.2 hPa | 0 mm | 1.79 m/s, 41° | 277 W/m² | - |
| 1777995975 | 6.11° C | 50% | 1020 hPa | 0 mm | 0.45 m/s, 168° | 275 W/m² | - |
| 1777995672 | 6.11° C | 51% | 1019.9 hPa | 0 mm | 0.45 m/s, 79° | 247 W/m² | - |
| 1777995369 | 6.11° C | 51% | 1020 hPa | 0 mm | 1.34 m/s, 2° | 303 W/m² | - |
| 1777995067 | 6.11° C | 51% | 1020.2 hPa | 0 mm | 1.34 m/s, 35° | 279 W/m² | - |
| 1777994773 | 5.56° C | 53% | 1019.9 hPa | 0 mm | 1.34 m/s, 57° | 248 W/m² | - |
| 1777994459 | 5.56° C | 53% | 1020 hPa | 0 mm | 0.89 m/s, 346° | 247 W/m² | - |
| 1777994154 | 5.56° C | 53% | 1020 hPa | 0 mm | 1.79 m/s, 7° | 219 W/m² | - |
| 1777993852 | 5.56° C | 54% | 1019.9 hPa | 0 mm | 1.34 m/s, 16° | 193 W/m² | - |
| 1777993548 | 5° C | 55% | 1020.4 hPa | 0 mm | 1.34 m/s, 340° | 178 W/m² | - |
| 1777993244 | 5° C | 55% | 1020 hPa | 0 mm | 1.34 m/s, 314° | 203 W/m² | - |
| 1777992940 | 4.44° C | 58% | 1020.4 hPa | 0 mm | 1.34 m/s, 346° | 163 W/m² | - |
| 1777992639 | 4.44° C | 59% | 1020.2 hPa | 0 mm | 0.89 m/s, 2° | 153 W/m² | - |
| 1777992336 | 4.44° C | 62% | 1020.2 hPa | 0 mm | 0.89 m/s, 309° | 148 W/m² | - |
| 1777992033 | 4.44° C | 62% | 1020.3 hPa | 0 mm | 0.89 m/s, 334° | 141 W/m² | - |
| 1777991731 | 3.89° C | 63% | 1020.3 hPa | 0 mm | 0 m/s | 140 W/m² | - |
| 1777991428 | 3.89° C | 62% | 1019.9 hPa | 0 mm | 0.45 m/s, 288° | 138 W/m² | - |
| 1777991125 | 3.89° C | 62% | 1020 hPa | 0 mm | 0.45 m/s, 283° | 134 W/m² | - |
* Rain latest hour (hover to see other rain measurements)
** Current wind speed in m/s (hover to see current wind gust speed)